Вернуться в каталог

KSLV-II R/B

АктивенSSO
NORAD 66663·ROCKET BODY·🇰🇷 South Korea

Запущен Nov 26, 2025 с Naro Space Center

Loading…

Ближайшие Пролёты (ближайшие 24 часа)

TLE

СвежийSource: Space-Track

Эпоха: Sep 14, 2026, 13:25 UTC

1 66663U 25274P   26257.55952632  .00005791  00000-0  46535-3 0  9994
2 66663  97.7535 188.0398 0064761 102.3206 258.5277 14.98755717 43715

Отслеживайте KSLV-II R/B в реальном времени с AllMySat

Download on the App Store